Location: Clarion
(42.7316°N, 93.7330°W)
Time: 09:34:33
(UTC+00:00)

CZ-4B R/B - Pass Details

Date: 22 April 2026
Orbit: 808 x 880 km, 98.9° (Epoch: 17 May)

Event Time Altitude Azimuth Distance (km) Brightness Sun altitude
Exits shadow 03:25:11 15° 202° (SSW) 2,139 5.1 -22.9°
Maximum altitude 03:29:13 37° 263° (W) 1,340 4.5 -23.5°
Drops below altitude 10° 03:34:25 10° 330° (NNW) 2,541 6.7 -24.1°
Sets 03:37:02 0° 338° (NNW) 3,487 7.5 -24.4°
